Starlink 1750

operational
NORAD ID: 46337 Int'l Des: 2020-062 Owner: SPXS Country: US Constellation: starlink
LEOCIRCULAR

Über Starlink 1750

Beschreibung wird geladen...

Live-Position

3D-Globus wird geladen...

Nächste Überflüge

Höhenverlauf

Altitude vs Time

uPlot chart will show altitude changes over time

Zweizeiliger Elementsatz

1 46337U 20062N 26034.66668981 .00395647 00000-0 19142-2 0 9991
2 46337 53.0367 104.8331 0005375 358.4561 232.6931 15.80900548 5866
Epoch: 3. Feb. 2026 • Age: 11 hours

Aktueller Status

Höhe 327.9 km
Geschwindigkeit 7.71 km/s
Subsatellitenpunkt -16.10°S, 90.44°W
Startdatum 3. Sept. 2020
Alter 5.4 years
Typ internet

Technische Details

Klassifizierung Payload
Masse 260.00 kg
Trockenmasse 248.00 kg
Gesamtmasse 260.00 kg
Länge 0.20 m
Durchmesser 2.80 m
Spannweite 9.00 m
Form Box + pan
Hersteller SPXS
Bus-Typ Starlink
Phasenstatus In Orbit
Besitzer/Staat SPXS/US

Große Konstellationen

Loading constellations...